Location: Zagreb
(45.8000°N, 16.0000°E)
Time: 02:17:21
(UTC+02:00)

Transit 2A Rocket - Pass Details

Date: 24 January 2022
Orbit: 592 x 909 km, 66.7° (Epoch: 26 May)

Event Time Altitude Azimuth Distance (km) Brightness Sun altitude
Rises 01:59:03 0° 330° (NNW) 3,496 - -55.0°
Reaches altitude 10° 02:02:15 10° 346° (NNW) 2,515 - -54.5°
Maximum altitude 02:06:38 21° 35° (NE) 1,771 - -53.9°
Drops below altitude 10° 02:10:47 10° 84° (E) 2,361 - -53.4°
Sets 02:13:40 0° 100° (E) 3,225 - -52.9°
